SCP
-0 -0 -0 -0 -0 -0 -0 0 -0 -0 -0 -0 -0 -0 -0 -0 -0 0 0 0 0 0 0 0 0 0 0 0 0 0 0 0 0 0 0 0 0 0 0 0 -0 0 -0
-0 -0 -0 -0 -0 -0 -0 -0 0 -0 -0 -0 0 0 0 0 0 0 0 0 0 0 0 0 0 0 0 0 0 0 0 0 0 0 0 0 0 0 0 0 0 0 0
-0 -0 -0 0 -0 -0 -0 -0 -0 -0 -0 -0 -0 0 0 0 0 0 0 0 0 0 0 0 0 0 0 0 0 0 0 0 0 0 0 -0 0 0 0 0 0 0 0
-0 -0 -0 -0 -0 -0 -0 -0 -0 -0 -0 -0 -0 -0 -0 -0 -0 -0 -0 -0 -0 -0 0 0 0 0 0 0 0 0 0 0 0 0 0 -0 -0 0 0 0 0 0 0
-0 -0 0 -0 -0 -0 -0 -0 -0 -0 -0 -0 -0 -0 -0 -0 -0 -0 -0 -0 -0 -0 -0 -0 0 0 0 0 0 0 0 0 0 0 0 0 0 0 0 0 0 0 0
0 0 0 -0 -0 -0 -0 -0 -0 -0 -0 -0 -0 -0 -0 -0 -0 -0 -0 -0 -0 -0 -0 -0 0 0 0 0 0 0 0 0 0 0 0 0 0 0 0 0 0 0 0
0 0 0 0 0 0 0 0 0 0 0 0 0 0 0 0 -0 0 -0 -0 -0 -0 -0 -0 -0 0 0 0 0 0 0 0 0 0 0 0 0 0 0 0 0 0 0
0 0 0 0 0 0 0 0 0 0 0 0 0 0 0 0 0 0 0 0 0 -0 -0 0 0 0 0 0 0 0 1 0 0 0 0 0 0 0 0 0 0 0 0
0 0 0 0 0 0 0 0 0 0 0 0 0 0 0 -0 -0 0 0 0 0 0 0 0 0 0 0 0 1 1 1 0 0 0 0 0 0 1 1 0 0 0 0
0 0 0 0 0 0 0 -0 -0 -0 -0 -0 -0 0 0 -0 -0 0 0 -0 -0 -0 0 0 0 1 1 1 1 1 1 1 0 0 0 0 1 1 1 1 0 0 0
0 0 0 0 0 0 0 -0 -0 -0 -0 -0 -0 0 0 0 0 0 0 0 0 0 0 0 0 1 1 1 1 1 1 0 0 0 0 0 2 2 1 1 1 1 0
0 0 0 0 0 0 0 0 0 0 0 0 0 0 0 -0 0 -0 0 0 0 0 0 1 1 1 1 1 1 1 2 0 0 0 0 2 2 3 2 1 1 1 0
0 0 0 0 0 0 0 0 0 0 0 0 0 0 0 0 0 0 0 0 0 0 0 0 0 0 1 1 0 0 2 1 1 0 0 2 2 3 2 1 1 1 1
0 0 0 0 0 0 0 0 0 0 0 0 0 0 0 0 0 0 0 0 0 0 0 0 0 0 0 0 0 0 0 2 2 1 1 2 3 4 3 2 1 1 1
0 0 0 0 0 0 0 0 0 0 0 -0 0 0 0 0 0 0 0 0 0 0 0 0 0 0 0 0 0 0 0 0 1 2 1 4 5 2 2 2 1 1 1
0 0 0 0 0 0 0 0 -0 0 -0 0 0 0 0 0 0 0 -0 0 0 0 0 0 0 0 0 0 0 0 0 0 1 1 1 3 3 3 3 1 2 2 1
0 0 0 0 0 0 0 0 0 0 -0 0 0 0 0 0 -0 0 0 0 0 0 0 0 0 0 0 0 0 0 0 0 0 1 1 1 2 3 2 3 2 3 2
0 0 0 0 0 0 0 -0 -0 0 -0 0 0 0 0 0 0 0 0 0 0 0 0 0 0 0 0 0 0 0 0 1 0 0 1 1 0 3 3 3 2 2 1
0 0 0 0 0 0 0 0 0 0 0 0 0 0 0 0 0 0 0 0 0 0 0 0 0 0 0 0 0 0 0 0 1 0 0 1 2 3 4 2 2 2 1
0 0 0 0 0 0 0 0 0 0 0 0 0 0 0 0 0 0 0 0 0 0 0 0 0 0 0 0 0 0 0 0 -0 0 0 0 1 2 4 2 2 1 1
0 0 0 0 0 0 0 0 0 0 0 0 0 0 0 0 0 0 0 0 0 0 0 0 0 0 0 0 0 0 0 0 1 0 1 1 1 4 3 4 1 2 2
0 0 0 0 0 0 0 0 0 0 0 0 0 0 0 0 0 0 0 0 0 0 0 0 0 0 0 0 0 0 0 0 1 1 1 1 1 1 1 2 1 1 1
0 0 0 0 0 0 0 0 0 0 0 0 0 0 0 0 0 0 0 0 0 0 0 0 0 0 0 0 0 0 0 0 1 0 1 1 2 2 0 2 0 0 1
0 0 0 0 0 0 0 0 0 0 0 0 0 0 0 0 0 0 0 0 0 0 0 0 0 0 0 0 0 0 1 0 0 0 0 1 5 2 2 1 1 2 2
0 0 0 0 0 0 0 0 0 0 0 0 0 0 0 0 0 0 0 0 0 0 0 0 0 0 0 0 0 0 0 0 1 1 0 1 0 0 0 1 2 1 1
0 0 0 0 0 0 0 0 0 0 0 0 0 0 0 0 0 0 0 0 0 0 0 0 0 0 0 0 0 0 0 0 0 0 0 1 0 0 1 1 0 1 0
Wind_Speed_500mb
22 3 10 12 14 17 16 16 16 16 16 14 12 10 10 9 9 9 8 5 2 2 4 6 9 13 13 12 13 14 16 15 12 10 11 11 10 9 6 1 6 9 6
19 15 13 12 15 16 16 15 15 15 14 13 13 13 12 10 8 6 4 1 3 5 7 8 10 13 14 14 14 15 16 16 16 15 14 14 13 12 11 6 6 10 17
16 16 15 15 14 16 15 15 16 16 14 13 12 12 12 10 8 6 4 4 4 5 8 11 13 15 17 18 18 18 19 20 19 17 16 14 25 22 20 17 14 11 14
21 18 15 16 15 17 16 17 17 16 15 13 13 13 12 11 9 8 6 5 5 6 9 12 15 19 22 25 25 25 25 26 26 24 20 18 14 31 34 29 23 19 16
19 19 19 17 16 18 18 19 19 19 19 18 16 14 13 13 12 10 8 7 8 10 12 15 17 21 24 27 30 32 32 32 32 30 25 23 24 35 35 36 32 30 28
22 20 21 20 18 17 16 16 17 17 16 16 15 14 13 12 11 11 12 12 12 13 16 18 20 23 27 29 32 34 36 37 37 32 29 29 34 39 40 40 34 37 37
18 21 21 20 16 15 14 13 12 11 10 9 9 10 12 13 13 14 15 17 20 21 22 23 25 27 29 32 34 35 36 38 39 32 32 33 37 41 48 42 39 38 41
21 20 20 17 15 12 15 17 17 16 16 17 17 18 19 20 21 21 24 27 29 31 31 32 33 35 35 36 36 37 40 42 42 37 37 37 40 47 54 48 42 41 41
24 17 21 21 21 16 21 21 18 18 19 21 21 21 23 24 26 26 28 33 35 36 36 38 40 42 43 44 44 45 45 46 47 40 41 41 47 55 58 58 52 48 46
24 19 19 23 17 16 23 30 24 24 23 23 24 27 30 30 36 34 36 37 42 47 48 47 47 49 50 51 50 51 51 51 54 47 45 45 52 55 57 63 58 53 51
24 24 22 21 20 20 20 30 31 35 38 33 30 31 26 25 23 26 30 37 35 39 44 50 55 55 54 56 55 54 53 57 48 44 44 45 52 58 63 64 60 54 53
24 24 21 26 21 20 19 21 21 25 26 29 32 38 30 35 28 36 33 39 39 42 48 43 45 46 48 55 45 48 51 52 45 45 44 52 47 55 60 64 58 50 51
23 22 21 24 28 21 19 20 22 23 26 26 31 34 33 33 32 31 35 35 40 37 34 37 38 43 46 40 39 42 60 48 52 45 49 47 54 63 58 54 49 46 47
22 22 20 22 23 21 21 22 22 23 27 29 29 34 36 33 34 38 37 41 39 38 40 38 38 43 43 53 50 55 54 56 52 48 49 45 58 57 55 52 45 44 44
22 20 20 19 16 19 23 24 22 22 22 23 23 24 29 29 30 35 37 37 38 38 40 40 41 43 45 46 51 61 63 68 62 69 64 50 65 62 55 53 49 45 44
20 18 18 13 15 22 29 28 20 21 24 25 26 27 23 29 28 31 34 36 36 35 38 42 42 45 45 45 50 57 71 69 67 64 73 64 73 73 65 57 58 53 49
16 16 16 15 17 24 26 23 22 22 25 26 28 30 27 32 28 32 32 34 34 37 42 40 42 43 43 47 51 54 60 76 68 74 72 67 65 67 58 59 58 57 55
16 14 12 11 14 21 24 19 21 23 25 29 31 31 29 31 32 33 35 36 36 45 40 40 42 47 45 47 52 55 61 63 77 75 81 75 79 63 73 71 57 49 51
14 12 10 11 17 24 22 25 27 32 31 35 36 36 37 37 36 39 38 38 40 41 42 44 44 47 50 53 52 56 62 71 69 79 78 81 84 86 78 85 55 51 44
11 9 8 9 20 23 23 28 30 33 36 38 40 40 45 42 43 45 45 48 49 46 47 48 56 54 52 53 58 59 65 64 82 67 83 83 73 56 66 66 58 51 42
7 5 7 11 21 28 27 32 35 39 41 44 46 48 45 48 53 50 52 54 53 55 57 58 57 55 56 54 58 61 63 58 64 84 72 68 44 42 67 66 66 45 30
2 4 7 13 23 31 28 34 33 37 43 48 47 52 50 61 49 56 66 60 66 62 62 61 56 55 58 50 54 58 56 57 53 63 87 70 77 78 57 69 62 43 27
4 5 9 16 25 33 32 34 38 42 48 51 53 61 57 56 62 68 72 69 61 63 65 63 60 62 55 46 51 49 40 40 48 54 59 71 62 46 72 71 54 20 15
6 7 13 18 23 24 31 36 41 49 57 59 63 61 65 66 69 65 54 60 73 71 64 69 62 56 55 59 51 46 51 58 52 45 42 42 38 29 46 44 38 38 33
9 14 17 20 24 29 34 39 46 53 58 61 63 66 68 68 53 56 71 73 64 63 64 70 71 64 50 44 51 48 51 49 49 49 57 48 50 60 54 40 39 47 31
18 19 23 26 26 35 39 44 50 56 61 62 64 63 62 63 65 61 61 63 68 65 63 59 56 52 47 44 50 46 46 47 46 41 36 38 43 36 52 38 42 27 33
Wind_Direction_500mb
90 99 96 87 81 78 74 77 78 73 67 68 77 83 76 72 59 52 48 40 15 260 222 213 213 210 212 219 229 238 243 248 262 278 280 273 261 245 232 195 81 22 317
87 104 102 90 87 82 78 70 70 78 85 82 76 69 67 64 61 60 53 13 287 277 267 255 239 232 233 239 245 248 251 256 265 272 272 271 270 261 250 242 162 202 231
112 102 117 105 93 82 75 75 73 71 69 72 70 67 66 60 52 38 18 351 311 278 261 252 245 244 247 250 255 255 256 266 275 283 286 292 276 277 284 254 231 221 226
116 114 110 94 87 76 67 63 65 66 70 69 62 59 59 51 38 25 9 346 323 293 272 264 261 259 253 251 256 260 261 264 268 276 285 287 278 259 275 265 249 245 247
122 118 103 95 84 71 65 61 56 51 48 44 44 42 38 32 22 14 2 343 318 303 288 278 272 269 266 262 260 262 265 267 268 270 273 266 265 264 266 272 255 247 247
122 120 106 94 89 84 73 68 67 63 57 50 43 36 27 17 6 354 340 328 317 307 299 291 286 280 273 268 266 265 263 264 267 271 272 267 258 253 262 264 261 257 259
123 115 113 107 102 100 99 87 76 68 58 48 31 15 4 354 342 333 325 320 315 308 300 291 284 279 276 276 273 268 264 265 266 266 264 262 259 261 266 264 261 257 254
117 121 117 113 101 79 65 55 46 37 28 17 7 356 347 342 338 332 327 323 321 315 305 298 292 287 282 277 273 270 267 264 263 266 263 259 256 257 265 269 263 261 258
120 114 106 96 71 73 70 55 47 41 35 28 18 6 0 353 335 324 321 315 305 302 301 298 294 289 285 280 277 273 271 268 265 260 259 258 260 258 263 268 267 263 260
117 121 116 101 89 73 70 56 49 48 43 35 28 21 17 11 339 341 337 316 306 300 297 293 290 288 282 279 276 273 270 269 267 261 258 255 256 262 263 269 269 262 261
109 110 106 91 85 87 66 53 36 31 27 30 16 9 16 354 352 332 324 323 330 317 306 295 292 290 287 279 276 274 272 269 259 258 259 259 252 252 261 269 267 262 262
105 102 104 99 77 74 64 57 36 30 22 12 6 1 359 354 341 350 331 333 330 316 317 326 317 308 300 293 272 283 276 275 254 250 254 254 250 253 262 271 264 261 262
111 98 85 85 104 75 44 47 30 13 10 3 354 353 349 353 333 337 335 323 318 320 312 302 301 298 286 272 272 264 271 260 255 244 252 254 255 255 265 261 256 260 265
115 102 86 80 62 69 51 28 15 4 357 354 348 340 343 345 339 335 330 327 325 317 313 310 302 293 288 279 273 270 268 262 262 264 256 255 255 251 266 258 256 255 259
120 101 81 81 68 46 25 13 8 357 351 352 341 329 344 342 333 335 329 329 320 319 314 310 306 301 296 287 277 270 267 259 260 266 250 260 246 269 254 261 256 253 249
123 102 80 68 38 19 12 12 8 343 357 346 342 334 338 340 329 334 331 324 324 320 313 314 311 305 300 293 286 275 268 273 265 261 262 259 262 267 262 255 256 253 245
129 103 72 47 21 13 358 3 2 343 355 344 340 336 327 334 330 328 326 324 321 316 327 317 310 304 301 298 291 282 278 266 264 261 266 261 268 260 259 246 258 251 245
136 104 82 59 18 10 350 2 359 344 354 342 338 334 326 335 327 328 326 324 310 320 319 317 315 312 306 297 295 295 278 275 262 265 258 256 253 261 259 259 244 243 241
130 106 69 28 3 1 358 0 356 345 340 334 332 327 316 327 323 321 322 319 313 318 314 312 311 309 307 305 298 293 290 276 273 260 262 254 248 242 249 261 231 233 238
126 96 56 24 347 360 360 353 342 340 330 329 325 319 320 319 320 315 319 317 314 312 308 304 307 306 306 303 300 295 295 270 264 268 257 259 259 239 238 245 254 226 243
124 72 25 9 342 351 356 347 339 331 330 327 321 318 314 311 314 309 312 309 308 306 301 303 302 300 303 305 302 297 299 279 275 256 262 257 246 239 249 238 207 227 208
161 15 14 3 340 343 346 341 335 330 323 321 319 314 306 309 304 305 306 303 305 301 301 301 298 297 295 296 298 301 307 301 275 264 254 263 255 248 249 236 240 228 142
269 343 345 350 335 339 335 339 327 323 321 318 312 307 308 303 303 302 300 309 304 303 299 293 297 291 288 291 293 292 299 287 304 287 259 256 246 246 251 233 256 190 172
268 315 328 341 342 339 337 328 322 321 315 309 312 306 303 304 302 306 302 296 297 300 296 299 288 288 283 289 291 289 290 294 295 292 269 258 244 260 222 211 186 187 215
279 295 317 325 331 329 327 323 318 314 311 310 307 304 303 309 303 304 303 305 300 295 293 289 288 286 285 283 282 289 295 302 294 280 278 277 278 252 274 243 215 210 211
281 293 303 314 320 324 322 321 319 315 313 312 309 307 307 303 302 306 302 298 299 297 297 297 292 286 283 288 286 290 290 298 301 301 306 294 281 270 239 200 200 198 215
Wind_Speed_850mb
22 3 10 12 14 17 16 16 16 16 16 14 12 10 10 9 9 9 8 5 2 2 4 6 9 13 13 12 13 14 16 15 12 10 11 11 10 9 6 1 6 9 6
19 15 13 12 15 16 16 15 15 15 14 13 13 13 12 10 8 6 4 1 3 5 7 8 10 13 14 14 14 15 16 16 16 15 14 14 13 12 11 6 6 10 17
16 16 15 15 14 16 15 15 16 16 14 13 12 12 12 10 8 6 4 4 4 5 8 11 13 15 17 18 18 18 19 20 19 17 16 14 25 22 20 17 14 11 14
21 18 15 16 15 17 16 17 17 16 15 13 13 13 12 11 9 8 6 5 5 6 9 12 15 19 22 25 25 25 25 26 26 24 20 18 14 31 34 29 23 19 16
19 19 19 17 16 18 18 19 19 19 19 18 16 14 13 13 12 10 8 7 8 10 12 15 17 21 24 27 30 32 32 32 32 30 25 23 24 35 35 36 32 30 28
22 20 21 20 18 17 16 16 17 17 16 16 15 14 13 12 11 11 12 12 12 13 16 18 20 23 27 29 32 34 36 37 37 32 29 29 34 39 40 40 34 37 37
18 21 21 20 16 15 14 13 12 11 10 9 9 10 12 13 13 14 15 17 20 21 22 23 25 27 29 32 34 35 36 38 39 32 32 33 37 41 48 42 39 38 41
21 20 20 17 15 12 15 17 17 16 16 17 17 18 19 20 21 21 24 27 29 31 31 32 33 35 35 36 36 37 40 42 42 37 37 37 40 47 54 48 42 41 41
24 17 21 21 21 16 21 21 18 18 19 21 21 21 23 24 26 26 28 33 35 36 36 38 40 42 43 44 44 45 45 46 47 40 41 41 47 55 58 58 52 48 46
24 19 19 23 17 16 23 30 24 24 23 23 24 27 30 30 36 34 36 37 42 47 48 47 47 49 50 51 50 51 51 51 54 47 45 45 52 55 57 63 58 53 51
24 24 22 21 20 20 20 30 31 35 38 33 30 31 26 25 23 26 30 37 35 39 44 50 55 55 54 56 55 54 53 57 48 44 44 45 52 58 63 64 60 54 53
24 24 21 26 21 20 19 21 21 25 26 29 32 38 30 35 28 36 33 39 39 42 48 43 45 46 48 55 45 48 51 52 45 45 44 52 47 55 60 64 58 50 51
23 22 21 24 28 21 19 20 22 23 26 26 31 34 33 33 32 31 35 35 40 37 34 37 38 43 46 40 39 42 60 48 52 45 49 47 54 63 58 54 49 46 47
22 22 20 22 23 21 21 22 22 23 27 29 29 34 36 33 34 38 37 41 39 38 40 38 38 43 43 53 50 55 54 56 52 48 49 45 58 57 55 52 45 44 44
22 20 20 19 16 19 23 24 22 22 22 23 23 24 29 29 30 35 37 37 38 38 40 40 41 43 45 46 51 61 63 68 62 69 64 50 65 62 55 53 49 45 44
20 18 18 13 15 22 29 28 20 21 24 25 26 27 23 29 28 31 34 36 36 35 38 42 42 45 45 45 50 57 71 69 67 64 73 64 73 73 65 57 58 53 49
16 16 16 15 17 24 26 23 22 22 25 26 28 30 27 32 28 32 32 34 34 37 42 40 42 43 43 47 51 54 60 76 68 74 72 67 65 67 58 59 58 57 55
16 14 12 11 14 21 24 19 21 23 25 29 31 31 29 31 32 33 35 36 36 45 40 40 42 47 45 47 52 55 61 63 77 75 81 75 79 63 73 71 57 49 51
14 12 10 11 17 24 22 25 27 32 31 35 36 36 37 37 36 39 38 38 40 41 42 44 44 47 50 53 52 56 62 71 69 79 78 81 84 86 78 85 55 51 44
11 9 8 9 20 23 23 28 30 33 36 38 40 40 45 42 43 45 45 48 49 46 47 48 56 54 52 53 58 59 65 64 82 67 83 83 73 56 66 66 58 51 42
7 5 7 11 21 28 27 32 35 39 41 44 46 48 45 48 53 50 52 54 53 55 57 58 57 55 56 54 58 61 63 58 64 84 72 68 44 42 67 66 66 45 30
2 4 7 13 23 31 28 34 33 37 43 48 47 52 50 61 49 56 66 60 66 62 62 61 56 55 58 50 54 58 56 57 53 63 87 70 77 78 57 69 62 43 27
4 5 9 16 25 33 32 34 38 42 48 51 53 61 57 56 62 68 72 69 61 63 65 63 60 62 55 46 51 49 40 40 48 54 59 71 62 46 72 71 54 20 15
6 7 13 18 23 24 31 36 41 49 57 59 63 61 65 66 69 65 54 60 73 71 64 69 62 56 55 59 51 46 51 58 52 45 42 42 38 29 46 44 38 38 33
9 14 17 20 24 29 34 39 46 53 58 61 63 66 68 68 53 56 71 73 64 63 64 70 71 64 50 44 51 48 51 49 49 49 57 48 50 60 54 40 39 47 31
18 19 23 26 26 35 39 44 50 56 61 62 64 63 62 63 65 61 61 63 68 65 63 59 56 52 47 44 50 46 46 47 46 41 36 38 43 36 52 38 42 27 33
Wind_Direction_850mb
90 99 96 87 81 78 74 77 78 73 67 68 77 83 76 72 59 52 48 40 15 260 222 213 213 210 212 219 229 238 243 248 262 278 280 273 261 245 232 195 81 22 317
87 104 102 90 87 82 78 70 70 78 85 82 76 69 67 64 61 60 53 13 287 277 267 255 239 232 233 239 245 248 251 256 265 272 272 271 270 261 250 242 162 202 231
112 102 117 105 93 82 75 75 73 71 69 72 70 67 66 60 52 38 18 351 311 278 261 252 245 244 247 250 255 255 256 266 275 283 286 292 276 277 284 254 231 221 226
116 114 110 94 87 76 67 63 65 66 70 69 62 59 59 51 38 25 9 346 323 293 272 264 261 259 253 251 256 260 261 264 268 276 285 287 278 259 275 265 249 245 247
122 118 103 95 84 71 65 61 56 51 48 44 44 42 38 32 22 14 2 343 318 303 288 278 272 269 266 262 260 262 265 267 268 270 273 266 265 264 266 272 255 247 247
122 120 106 94 89 84 73 68 67 63 57 50 43 36 27 17 6 354 340 328 317 307 299 291 286 280 273 268 266 265 263 264 267 271 272 267 258 253 262 264 261 257 259
123 115 113 107 102 100 99 87 76 68 58 48 31 15 4 354 342 333 325 320 315 308 300 291 284 279 276 276 273 268 264 265 266 266 264 262 259 261 266 264 261 257 254
117 121 117 113 101 79 65 55 46 37 28 17 7 356 347 342 338 332 327 323 321 315 305 298 292 287 282 277 273 270 267 264 263 266 263 259 256 257 265 269 263 261 258
120 114 106 96 71 73 70 55 47 41 35 28 18 6 0 353 335 324 321 315 305 302 301 298 294 289 285 280 277 273 271 268 265 260 259 258 260 258 263 268 267 263 260
117 121 116 101 89 73 70 56 49 48 43 35 28 21 17 11 339 341 337 316 306 300 297 293 290 288 282 279 276 273 270 269 267 261 258 255 256 262 263 269 269 262 261
109 110 106 91 85 87 66 53 36 31 27 30 16 9 16 354 352 332 324 323 330 317 306 295 292 290 287 279 276 274 272 269 259 258 259 259 252 252 261 269 267 262 262
105 102 104 99 77 74 64 57 36 30 22 12 6 1 359 354 341 350 331 333 330 316 317 326 317 308 300 293 272 283 276 275 254 250 254 254 250 253 262 271 264 261 262
111 98 85 85 104 75 44 47 30 13 10 3 354 353 349 353 333 337 335 323 318 320 312 302 301 298 286 272 272 264 271 260 255 244 252 254 255 255 265 261 256 260 265
115 102 86 80 62 69 51 28 15 4 357 354 348 340 343 345 339 335 330 327 325 317 313 310 302 293 288 279 273 270 268 262 262 264 256 255 255 251 266 258 256 255 259
120 101 81 81 68 46 25 13 8 357 351 352 341 329 344 342 333 335 329 329 320 319 314 310 306 301 296 287 277 270 267 259 260 266 250 260 246 269 254 261 256 253 249
123 102 80 68 38 19 12 12 8 343 357 346 342 334 338 340 329 334 331 324 324 320 313 314 311 305 300 293 286 275 268 273 265 261 262 259 262 267 262 255 256 253 245
129 103 72 47 21 13 358 3 2 343 355 344 340 336 327 334 330 328 326 324 321 316 327 317 310 304 301 298 291 282 278 266 264 261 266 261 268 260 259 246 258 251 245
136 104 82 59 18 10 350 2 359 344 354 342 338 334 326 335 327 328 326 324 310 320 319 317 315 312 306 297 295 295 278 275 262 265 258 256 253 261 259 259 244 243 241
130 106 69 28 3 1 358 0 356 345 340 334 332 327 316 327 323 321 322 319 313 318 314 312 311 309 307 305 298 293 290 276 273 260 262 254 248 242 249 261 231 233 238
126 96 56 24 347 360 360 353 342 340 330 329 325 319 320 319 320 315 319 317 314 312 308 304 307 306 306 303 300 295 295 270 264 268 257 259 259 239 238 245 254 226 243
124 72 25 9 342 351 356 347 339 331 330 327 321 318 314 311 314 309 312 309 308 306 301 303 302 300 303 305 302 297 299 279 275 256 262 257 246 239 249 238 207 227 208
161 15 14 3 340 343 346 341 335 330 323 321 319 314 306 309 304 305 306 303 305 301 301 301 298 297 295 296 298 301 307 301 275 264 254 263 255 248 249 236 240 228 142
269 343 345 350 335 339 335 339 327 323 321 318 312 307 308 303 303 302 300 309 304 303 299 293 297 291 288 291 293 292 299 287 304 287 259 256 246 246 251 233 256 190 172
268 315 328 341 342 339 337 328 322 321 315 309 312 306 303 304 302 306 302 296 297 300 296 299 288 288 283 289 291 289 290 294 295 292 269 258 244 260 222 211 186 187 215
279 295 317 325 331 329 327 323 318 314 311 310 307 304 303 309 303 304 303 305 300 295 293 289 288 286 285 283 282 289 295 302 294 280 278 277 278 252 274 243 215 210 211
281 293 303 314 320 324 322 321 319 315 313 312 309 307 307 303 302 306 302 298 299 297 297 297 292 286 283 288 286 290 290 298 301 301 306 294 281 270 239 200 200 198 215